| time (UTC) | temp F | wind direction | speed MPH | gust MPH | rain 1hr in | rain 24hr in | rain mn in | humidity % | barometer mb |
| 20260505123207 | 52 | 58 | 0.0 | 2.0 | 0.00 | 0.10 | 0.00 | 94 | 1012.7 |
| 20260505121726 | 52 | 58 | 0.0 | 0.0 | 0.00 | 0.10 | 0.00 | 94 | 1012.8 |
| 20260505120703 | 52 | 58 | 0.0 | 0.0 | 0.00 | 0.10 | 0.00 | 95 | 1012.8 |
| 20260505115701 | 52 | 58 | 0.0 | 0.0 | 0.00 | 0.10 | 0.00 | 94 | 1012.7 |
| 20260505114701 | 52 | 58 | 0.0 | 2.0 | 0.00 | 0.10 | 0.00 | 94 | 1012.8 |
| 20260505113648 | 52 | 58 | 0.0 | 2.0 | 0.00 | 0.10 | 0.00 | 94 | 1012.9 |
| 20260505112622 | 52 | 58 | 1.0 | 2.0 | 0.00 | 0.10 | 0.00 | 94 | 1013.0 |
| 20260505111620 | 52 | 116 | 0.0 | 2.0 | 0.00 | 0.10 | 0.00 | 94 | 1013.0 |
| 20260505110621 | 52 | 115 | 0.0 | 2.0 | 0.00 | 0.10 | 0.00 | 94 | 1012.9 |
| 20260505101608 | 52 | 44 | 2.0 | 3.0 | 0.00 | 0.10 | 0.00 | 93 | 1012.7 |
| 20260505100606 | 52 | 26 | 1.0 | 3.0 | 0.00 | 0.10 | 0.00 | 93 | 1012.7 |
| 20260505095600 | 52 | 46 | 1.0 | 2.0 | 0.00 | 0.10 | 0.00 | 93 | 1012.6 |
| 20260505094551 | 52 | 348 | 0.0 | 3.0 | 0.00 | 0.10 | 0.00 | 94 | 1012.5 |
| 20260505093551 | 52 | 32 | 0.0 | 2.0 | 0.00 | 0.10 | 0.00 | 94 | 1012.8 |
| 20260505093036 | 52 | 32 | 1.0 | 3.0 | 0.00 | 0.10 | 0.00 | 95 | 1012.8 |
| 20260505091541 | 53 | 48 | 0.0 | 1.0 | 0.00 | 0.10 | 0.00 | 95 | 1012.9 |
| 20260505090539 | 53 | 81 | 0.0 | 0.0 | 0.00 | 0.10 | 0.00 | 95 | 1013.2 |
| 20260505085517 | 53 | 81 | 0.0 | 0.0 | 0.00 | 0.10 | 0.00 | 95 | 1013.5 |
| 20260505084516 | 53 | 81 | 0.0 | 0.0 | 0.00 | 0.10 | 0.00 | 95 | 1013.3 |
| 20260505083516 | 53 | 81 | 0.0 | 1.0 | 0.00 | 0.10 | 0.00 | 94 | 1013.4 |
| 20260505082513 | 53 | 81 | 0.0 | 2.0 | 0.00 | 0.10 | 0.00 | 95 | 1013.4 |
| 20260505081513 | 53 | 81 | 0.0 | 0.0 | 0.00 | 0.10 | 0.00 | 95 | 1013.3 |
| 20260505080949 | 53 | 81 | 0.0 | 0.0 | 0.00 | 0.10 | 0.00 | 95 | 1013.5 |
| 20260505075956 | 53 | 81 | 0.0 | 0.0 | 0.00 | 0.10 | 0.00 | 94 | 1013.5 |
| 20260505074512 | 53 | 81 | 0.0 | 2.0 | 0.00 | 0.10 | 0.00 | 94 | 1013.7 |
| 20260505073504 | 53 | 90 | 0.0 | 1.0 | 0.00 | 0.10 | 0.00 | 94 | 1013.6 |
| 20260505072429 | 53 | 292 | 0.0 | 2.0 | 0.00 | 0.10 | 0.00 | 94 | 1013.3 |
| 20260505071429 | 53 | 35 | 2.0 | 3.0 | 0.00 | 0.10 | 0.00 | 94 | 1013.6 |
| 20260505070429 | 53 | 34 | 0.0 | 3.0 | 0.00 | 0.10 | 0.00 | 94 | 1013.4 |
| 20260505065903 | 54 | 355 | 0.0 | 0.0 | 0.00 | 0.10 | 0.10 | 95 | 1013.4 |
| 20260505064422 | 54 | 355 | 0.0 | 0.0 | 0.00 | 0.10 | 0.10 | 95 | 1013.8 |
| 20260505063423 | 54 | 355 | 0.0 | 0.0 | 0.00 | 0.10 | 0.10 | 94 | 1013.9 |
| 20260505062412 | 54 | 46 | 0.0 | 0.0 | 0.00 | 0.10 | 0.10 | 94 | 1014.0 |
| 20260505061412 | 54 | 355 | 0.0 | 2.0 | 0.01 | 0.10 | 0.10 | 94 | 1013.9 |
| 20260505060404 | 54 | 22 | 1.0 | 3.0 | 0.04 | 0.10 | 0.10 | 94 | 1013.9 |
| 20260505055401 | 54 | 9 | 0.0 | 3.0 | 0.06 | 0.10 | 0.10 | 94 | 1013.6 |
| 20260505054338 | 54 | 170 | 0.0 | 1.0 | 0.07 | 0.10 | 0.10 | 93 | 1013.7 |
| 20260505053331 | 55 | 198 | 0.0 | 2.0 | 0.07 | 0.10 | 0.10 | 94 | 1013.8 |
| 20260505052322 | 55 | 109 | 0.0 | 0.0 | 0.07 | 0.10 | 0.10 | 94 | 1013.8 |
| 20260505051312 | 55 | 109 | 0.0 | 1.0 | 0.06 | 0.09 | 0.09 | 94 | 1014.1 |
| 20260505050245 | 55 | 126 | 1.0 | 4.0 | 0.03 | 0.06 | 0.06 | 94 | 1014.0 |
| 20260505041223 | 55 | 109 | 0.0 | 0.0 | 0.00 | 0.03 | 0.03 | 94 | 1013.6 |
| 20260505040222 | 55 | 109 | 0.0 | 0.0 | 0.00 | 0.03 | 0.03 | 93 | 1013.6 |
| 20260505035210 | 55 | 109 | 0.0 | 0.0 | 0.00 | 0.03 | 0.03 | 93 | 1013.5 |
| 20260505034145 | 55 | 109 | 0.0 | 0.0 | 0.00 | 0.03 | 0.03 | 93 | 1013.3 |
| 20260505033127 | 55 | 109 | 2.0 | 4.0 | 0.00 | 0.03 | 0.03 | 93 | 1013.2 |
| 20260505032121 | 55 | 63 | 2.0 | 4.0 | 0.00 | 0.03 | 0.03 | 93 | 1013.1 |
| 20260505031122 | 55 | 77 | 3.0 | 6.0 | 0.00 | 0.03 | 0.03 | 93 | 1013.0 |
| 20260505030121 | 55 | 119 | 0.0 | 3.0 | 0.00 | 0.03 | 0.03 | 92 | 1012.5 |
| 20260505025122 | 56 | 145 | 1.0 | 4.0 | 0.00 | 0.03 | 0.03 | 92 | 1013.0 |
| 20260505024107 | 56 | 169 | 1.0 | 4.0 | 0.00 | 0.03 | 0.03 | 92 | 1013.2 |
| 20260505023107 | 56 | 113 | 1.0 | 5.0 | 0.00 | 0.03 | 0.03 | 92 | 1013.4 |
| 20260505022107 | 56 | 90 | 2.0 | 5.0 | 0.00 | 0.03 | 0.03 | 92 | 1013.4 |
| 20260505021108 | 56 | 90 | 3.0 | 5.0 | 0.00 | 0.03 | 0.03 | 92 | 1013.4 |
| 20260505020108 | 56 | 115 | 2.0 | 6.0 | 0.00 | 0.03 | 0.03 | 92 | 1013.5 |
| 20260505015108 | 56 | 124 | 2.0 | 5.0 | 0.00 | 0.03 | 0.03 | 91 | 1013.4 |
| 20260505014105 | 56 | 114 | 1.0 | 4.0 | 0.00 | 0.03 | 0.03 | 91 | 1013.5 |
| 20260505013104 | 56 | 122 | 2.0 | 5.0 | 0.00 | 0.03 | 0.03 | 91 | 1013.6 |
| 20260505012104 | 56 | 120 | 2.0 | 5.0 | 0.00 | 0.03 | 0.03 | 91 | 1013.6 |
| 20260505011101 | 56 | 128 | 3.0 | 6.0 | 0.00 | 0.03 | 0.03 | 91 | 1013.6 |
| 20260505010059 | 56 | 95 | 3.0 | 5.0 | 0.00 | 0.03 | 0.03 | 91 | 1013.4 |
| 20260505005059 | 57 | 103 | 3.0 | 5.0 | 0.00 | 0.03 | 0.03 | 91 | 1013.4 |
| 20260505004059 | 57 | 111 | 1.0 | 5.0 | 0.00 | 0.03 | 0.03 | 91 | 1013.4 |
| 20260505003100 | 57 | 53 | 1.0 | 5.0 | 0.00 | 0.03 | 0.03 | 91 | 1013.3 |
| 20260505002100 | 58 | 121 | 1.0 | 4.0 | 0.00 | 0.03 | 0.03 | 91 | 1013.3 |
| 20260505001522 | 58 | 138 | 0.0 | 2.0 | 0.00 | 0.03 | 0.03 | 90 | 1013.3 |
| 20260505000030 | 58 | 115 | 0.0 | 1.0 | 0.00 | 0.03 | 0.03 | 90 | 1013.6 |
| 20260504235024 | 58 | 115 | 0.0 | 2.0 | 0.00 | 0.03 | 0.03 | 90 | 1013.6 |
| 20260504234017 | 58 | 115 | 0.0 | 1.0 | 0.00 | 0.03 | 0.03 | 89 | 1013.6 |
| 20260504233015 | 58 | 115 | 0.0 | 1.0 | 0.00 | 0.03 | 0.03 | 89 | 1013.6 |
| 20260504232503 | 57 | 115 | 0.0 | 0.0 | 0.00 | 0.03 | 0.03 | 89 | 1013.4 |
| 20260504231926 | 57 | 115 | 0.0 | 0.0 | 0.00 | 0.03 | 0.03 | 89 | 1013.5 |
| 20260504225957 | 57 | 115 | 0.0 | 2.0 | 0.01 | 0.03 | 0.03 | 90 | 1013.5 |
| 20260504225423 | 57 | 84 | 1.0 | 3.0 | 0.01 | 0.03 | 0.03 | 90 | 1013.6 |
| 20260504224418 | 57 | 55 | 0.0 | 2.0 | 0.01 | 0.03 | 0.03 | 90 | 1013.5 |
| 20260504222938 | 56 | 44 | 1.0 | 3.0 | 0.02 | 0.03 | 0.03 | 91 | 1013.6 |
| 20260504221934 | 56 | 41 | 1.0 | 3.0 | 0.03 | 0.03 | 0.03 | 90 | 1013.7 |
| 20260504221418 | 56 | 355 | 1.0 | 4.0 | 0.03 | 0.03 | 0.03 | 91 | 1013.7 |
| 20260504220409 | 56 | 9 | 2.0 | 5.0 | 0.02 | 0.02 | 0.02 | 90 | 1013.7 |
| 20260504214933 | 56 | 43 | 2.0 | 6.0 | 0.02 | 0.02 | 0.02 | 89 | 1013.8 |
| 20260504213931 | 57 | 340 | 2.0 | 6.0 | 0.02 | 0.02 | 0.02 | 88 | 1013.7 |
| 20260504212929 | 57 | 11 | 3.0 | 6.0 | 0.01 | 0.01 | 0.01 | 87 | 1013.6 |
| 20260504211930 | 58 | 337 | 2.0 | 5.0 | 0.00 | 0.00 | 0.00 | 84 | 1013.8 |
| 20260504210929 | 58 | 349 | 2.0 | 6.0 | 0.00 | 0.00 | 0.00 | 81 | 1013.8 |
| 20260504205925 | 59 | 5 | 3.0 | 9.0 | 0.00 | 0.00 | 0.00 | 80 | 1013.7 |
| 20260504204922 | 60 | 333 | 5.0 | 11.0 | 0.00 | 0.00 | 0.00 | 77 | 1014.0 |
| 20260504204309 | 61 | 315 | 5.0 | 11.0 | 0.00 | 0.00 | 0.00 | 72 | 1013.5 |
| 20260504203944 | 60 | 333 | 4.0 | 7.0 | 0.00 | 0.00 | 0.00 | 73 | 1013.8 |
| 20260504202354 | 61 | 0 | 6.0 | 13.0 | 0.00 | 0.00 | 0.00 | 72 | 1013.5 |
| 20260504200919 | 61 | 311 | 6.0 | 14.0 | 0.00 | 0.00 | 0.00 | 71 | 1013.6 |
| 20260504200355 | 62 | 305 | 4.0 | 11.0 | 0.00 | 0.00 | 0.00 | 71 | 1013.6 |
| 20260504194919 | 62 | 312 | 6.0 | 11.0 | 0.00 | 0.00 | 0.00 | 71 | 1013.8 |
| 20260504194400 | 62 | 341 | 5.0 | 10.0 | 0.00 | 0.00 | 0.00 | 69 | 1013.7 |
| 20260504192919 | 63 | 267 | 5.0 | 13.0 | 0.00 | 0.00 | 0.00 | 70 | 1013.6 |
| 20260504191919 | 63 | 30 | 5.0 | 12.0 | 0.00 | 0.00 | 0.00 | 70 | 1013.7 |
| 20260504190917 | 62 | 18 | 5.0 | 10.0 | 0.00 | 0.00 | 0.00 | 70 | 1013.7 |
| 20260504185916 | 63 | 5 | 5.0 | 13.0 | 0.00 | 0.00 | 0.00 | 70 | 1013.6 |
| 20260504184905 | 63 | 13 | 7.0 | 13.0 | 0.00 | 0.00 | 0.00 | 69 | 1013.6 |
| 20260504183900 | 63 | 314 | 5.0 | 12.0 | 0.00 | 0.00 | 0.00 | 70 | 1013.8 |
| 20260504182859 | 62 | 342 | 4.0 | 9.0 | 0.00 | 0.00 | 0.00 | 71 | 1013.8 |
| 20260504181858 | 62 | 328 | 4.0 | 9.0 | 0.00 | 0.00 | 0.00 | 69 | 1013.9 |
| 20260504180859 | 62 | 32 | 4.0 | 10.0 | 0.00 | 0.00 | 0.00 | 69 | 1013.9 |
| 20260504175859 | 62 | 331 | 3.0 | 8.0 | 0.00 | 0.00 | 0.00 | 71 | 1013.9 |
| 20260504174900 | 62 | 335 | 5.0 | 12.0 | 0.00 | 0.00 | 0.00 | 71 | 1013.8 |
| 20260504173859 | 61 | 264 | 6.0 | 12.0 | 0.00 | 0.00 | 0.00 | 70 | 1013.8 |
| 20260504172900 | 61 | 0 | 5.0 | 13.0 | 0.00 | 0.00 | 0.00 | 71 | 1013.6 |
| 20260504171859 | 60 | 323 | 5.0 | 12.0 | 0.00 | 0.00 | 0.00 | 72 | 1013.6 |
| 20260504170851 | 60 | 341 | 5.0 | 13.0 | 0.00 | 0.00 | 0.00 | 72 | 1013.7 |
| 20260504150749 | 53 | 167 | 0.0 | 0.0 | 0.00 | 0.00 | 0.00 | 91 | 1013.7 |
| 20260504140706 | 51 | 111 | 0.0 | 2.0 | 0.00 | 0.00 | 0.00 | 93 | 1013.4 |
| 20260504130621 | 51 | 132 | 0.0 | 0.0 | 0.00 | 0.00 | 0.00 | 94 | 1013.4 |